Location: Augustenthal
(51.7167°N, 10.2833°E)
Time: 08:31:10
(UTC+00:00)

Spot 2 Rocket - Pass Details

Date: 18 May 2021
Orbit: 758 x 771 km, 98.5° (Epoch: 20 June)

Event Time Altitude Azimuth Distance (km) Brightness Sun altitude
Exits shadow 21:00:39 10° 187° (S) 2,272 5.5 -12.7°
Maximum altitude 21:05:28 47° 261° (W) 1,001 4.3 -13.1°
Drops below altitude 10° 21:10:21 10° 335° (NNW) 2,300 7.4 -13.5°
Sets 21:12:45 0° 341° (NNW) 3,230 8.5 -13.7°
